Total_Precipitation_Accumulation
0.00 0.00 0.00 0.00 0.01 0.01 0.01 0.01 0.01 0.01 0.01 0.00 0.00 0.00 0.00 0.00 0.00 0.00 0.00 0.00 0.00 0.00 0.01 0.03 0.04 0.05 0.06 0.08 0.10 0.12 0.12 0.12 0.11 0.11 0.12 0.12 0.12 0.13 0.14 0.14 0.15 0.16 0.17
0.00 0.00 0.00 0.01 0.01 0.01 0.01 0.01 0.01 0.01 0.00 0.00 0.00 0.00 0.00 0.00 0.00 0.00 0.00 0.00 0.00 0.00 0.01 0.02 0.04 0.05 0.06 0.08 0.11 0.12 0.12 0.12 0.11 0.11 0.12 0.13 0.13 0.14 0.15 0.16 0.16 0.17 0.17
0.00 0.00 0.00 0.01 0.01 0.01 0.01 0.01 0.00 0.00 0.00 0.00 0.00 0.00 0.00 0.00 0.00 0.00 0.00 0.00 0.00 0.00 0.00 0.02 0.04 0.05 0.06 0.08 0.11 0.13 0.14 0.13 0.13 0.12 0.13 0.14 0.14 0.15 0.16 0.17 0.18 0.19 0.20
0.01 0.01 0.01 0.01 0.01 0.01 0.01 0.01 0.01 0.01 0.00 0.00 0.00 0.00 0.00 0.00 0.00 0.00 0.00 0.00 0.00 0.00 0.00 0.01 0.03 0.04 0.07 0.08 0.11 0.17 0.21 0.20 0.17 0.15 0.15 0.16 0.17 0.17 0.18 0.20 0.21 0.22 0.23
0.03 0.02 0.02 0.02 0.02 0.02 0.01 0.01 0.01 0.01 0.01 0.01 0.02 0.01 0.01 0.01 0.01 0.01 0.00 0.00 0.00 0.00 0.00 0.01 0.02 0.03 0.04 0.06 0.09 0.19 0.28 0.30 0.27 0.22 0.19 0.19 0.20 0.21 0.23 0.26 0.28 0.30 0.32
0.10 0.07 0.05 0.04 0.03 0.03 0.03 0.03 0.03 0.02 0.02 0.03 0.04 0.03 0.01 0.01 0.01 0.01 0.01 0.01 0.01 0.01 0.01 0.02 0.02 0.02 0.03 0.05 0.07 0.11 0.20 0.28 0.32 0.30 0.27 0.25 0.25 0.26 0.29 0.31 0.33 0.36 0.40
0.19 0.15 0.12 0.10 0.09 0.07 0.07 0.07 0.08 0.07 0.06 0.07 0.06 0.03 0.02 0.01 0.01 0.01 0.01 0.01 0.02 0.03 0.03 0.03 0.04 0.04 0.05 0.05 0.06 0.07 0.10 0.18 0.28 0.35 0.35 0.33 0.34 0.36 0.39 0.42 0.44 0.44 0.46
0.27 0.23 0.19 0.17 0.18 0.16 0.13 0.13 0.14 0.13 0.11 0.12 0.12 0.11 0.05 0.02 0.01 0.01 0.02 0.02 0.03 0.04 0.04 0.05 0.05 0.06 0.06 0.07 0.06 0.07 0.07 0.11 0.20 0.35 0.42 0.42 0.42 0.43 0.47 0.52 0.56 0.58 0.60
0.33 0.30 0.28 0.28 0.26 0.24 0.20 0.22 0.23 0.21 0.17 0.16 0.16 0.19 0.13 0.06 0.04 0.03 0.03 0.05 0.06 0.05 0.06 0.07 0.07 0.07 0.07 0.07 0.07 0.08 0.10 0.12 0.17 0.29 0.43 0.52 0.55 0.56 0.59 0.64 0.69 0.73 0.76
0.38 0.37 0.35 0.33 0.31 0.29 0.27 0.29 0.31 0.30 0.28 0.23 0.20 0.17 0.17 0.16 0.15 0.09 0.05 0.06 0.08 0.07 0.07 0.08 0.08 0.07 0.07 0.08 0.10 0.13 0.18 0.23 0.29 0.36 0.49 0.63 0.74 0.83 0.90 0.97 0.99 1.02 1.03
0.32 0.35 0.36 0.36 0.32 0.31 0.34 0.36 0.37 0.38 0.36 0.33 0.29 0.26 0.26 0.22 0.18 0.18 0.11 0.08 0.09 0.10 0.09 0.08 0.08 0.08 0.08 0.10 0.13 0.19 0.28 0.37 0.45 0.54 0.69 0.89 1.04 1.16 1.29 1.38 1.42 1.45 1.41
0.25 0.28 0.31 0.31 0.33 0.33 0.35 0.39 0.44 0.49 0.51 0.48 0.42 0.36 0.34 0.31 0.27 0.27 0.23 0.15 0.15 0.14 0.13 0.12 0.12 0.13 0.14 0.17 0.23 0.31 0.39 0.47 0.57 0.70 0.91 1.13 1.26 1.35 1.43 1.51 1.56 1.57 1.58
0.16 0.19 0.23 0.27 0.32 0.37 0.41 0.44 0.46 0.48 0.53 0.52 0.51 0.47 0.43 0.37 0.35 0.38 0.38 0.30 0.25 0.20 0.20 0.21 0.23 0.27 0.31 0.35 0.39 0.46 0.49 0.54 0.62 0.71 0.87 1.08 1.18 1.23 1.30 1.40 1.55 1.64 1.66
0.20 0.23 0.26 0.30 0.35 0.39 0.41 0.43 0.44 0.44 0.47 0.49 0.49 0.50 0.47 0.43 0.41 0.43 0.46 0.53 0.53 0.44 0.40 0.40 0.41 0.44 0.47 0.51 0.55 0.58 0.54 0.59 0.59 0.63 0.74 0.88 0.94 0.94 0.95 1.02 1.17 1.32 1.43
0.17 0.18 0.22 0.26 0.29 0.32 0.35 0.38 0.39 0.39 0.41 0.41 0.42 0.44 0.44 0.43 0.45 0.49 0.56 0.65 0.78 0.75 0.63 0.55 0.56 0.57 0.60 0.60 0.61 0.55 0.48 0.54 0.57 0.57 0.61 0.67 0.70 0.67 0.65 0.71 0.78 0.87 0.98
0.13 0.14 0.17 0.19 0.20 0.22 0.24 0.26 0.27 0.28 0.30 0.31 0.33 0.36 0.39 0.41 0.44 0.49 0.56 0.63 0.75 0.86 0.81 0.63 0.55 0.53 0.53 0.51 0.53 0.46 0.42 0.48 0.47 0.48 0.50 0.53 0.55 0.53 0.52 0.54 0.58 0.62 0.66
0.09 0.11 0.12 0.13 0.14 0.14 0.14 0.16 0.17 0.18 0.21 0.22 0.25 0.29 0.32 0.35 0.39 0.43 0.48 0.54 0.60 0.68 0.73 0.63 0.53 0.49 0.47 0.43 0.41 0.36 0.33 0.33 0.33 0.39 0.41 0.42 0.42 0.42 0.43 0.44 0.47 0.51 0.53
0.07 0.07 0.08 0.08 0.08 0.08 0.08 0.09 0.11 0.13 0.14 0.16 0.19 0.22 0.24 0.26 0.30 0.35 0.40 0.44 0.48 0.50 0.54 0.53 0.44 0.39 0.35 0.31 0.27 0.23 0.21 0.21 0.20 0.24 0.26 0.27 0.28 0.28 0.27 0.29 0.33 0.38 0.41
0.05 0.05 0.05 0.05 0.05 0.05 0.06 0.07 0.08 0.10 0.11 0.13 0.15 0.18 0.21 0.25 0.30 0.33 0.34 0.35 0.34 0.34 0.36 0.36 0.30 0.24 0.22 0.20 0.18 0.14 0.11 0.09 0.08 0.10 0.11 0.11 0.12 0.15 0.18 0.21 0.23 0.25 0.26
0.05 0.05 0.05 0.05 0.05 0.06 0.06 0.07 0.09 0.11 0.15 0.18 0.21 0.25 0.29 0.30 0.31 0.30 0.29 0.28 0.28 0.27 0.25 0.27 0.28 0.25 0.21 0.15 0.13 0.09 0.06 0.05 0.04 0.04 0.05 0.06 0.08 0.10 0.11 0.11 0.10 0.09 0.09
0.06 0.06 0.07 0.08 0.10 0.12 0.15 0.17 0.18 0.23 0.28 0.33 0.36 0.37 0.36 0.35 0.33 0.29 0.27 0.26 0.24 0.24 0.29 0.33 0.32 0.24 0.15 0.09 0.07 0.05 0.06 0.06 0.05 0.06 0.07 0.05 0.05 0.04 0.03 0.03 0.03 0.03 0.05
0.09 0.10 0.11 0.15 0.20 0.25 0.34 0.32 0.28 0.31 0.35 0.35 0.33 0.30 0.27 0.25 0.21 0.20 0.19 0.19 0.23 0.30 0.39 0.41 0.33 0.20 0.09 0.05 0.05 0.08 0.14 0.21 0.16 0.06 0.07 0.04 0.02 0.02 0.01 0.01 0.02 0.04 0.07
0.22 0.23 0.28 0.32 0.37 0.44 0.47 0.40 0.35 0.29 0.28 0.26 0.23 0.20 0.16 0.14 0.13 0.11 0.10 0.15 0.20 0.26 0.26 0.23 0.16 0.09 0.07 0.08 0.17 0.27 0.25 0.25 0.15 0.04 0.06 0.05 0.03 0.03 0.02 0.02 0.03 0.05 0.06
0.43 0.49 0.53 0.56 0.56 0.54 0.47 0.37 0.29 0.23 0.20 0.17 0.14 0.11 0.09 0.08 0.07 0.09 0.15 0.21 0.14 0.08 0.06 0.05 0.06 0.08 0.09 0.11 0.19 0.28 0.24 0.17 0.07 0.03 0.06 0.10 0.05 0.03 0.02 0.02 0.02 0.04 0.05
0.58 0.59 0.56 0.52 0.47 0.41 0.32 0.22 0.15 0.12 0.10 0.08 0.05 0.04 0.05 0.05 0.06 0.18 0.26 0.22 0.08 0.02 0.01 0.04 0.07 0.07 0.06 0.06 0.07 0.19 0.27 0.28 0.16 0.03 0.03 0.08 0.06 0.05 0.03 0.01 0.01 0.03 0.06
0.54 0.47 0.40 0.32 0.25 0.19 0.13 0.08 0.06 0.04 0.03 0.02 0.02 0.02 0.03 0.04 0.13 0.24 0.19 0.13 0.05 0.03 0.06 0.04 0.02 0.01 0.00 0.00 0.03 0.14 0.41 0.65 0.43 0.20 0.04 0.16 0.16 0.18 0.24 0.04 0.02 0.05 0.07